Location: Hradec Kralove
(50.2170°N, 15.8330°E)
Time: 13:30:14
(UTC+02:00)

Explorer 7 - Pass Details

Date: 31 January 2023
Orbit: 478 x 657 km, 50.3° (Epoch: 26 March)

Event Time Altitude Azimuth Distance (km) Brightness Sun altitude
Rises 12:20:53 0° 203° (SSW) 2,686 11.6 22.4°
Reaches altitude 10° 12:23:31 10° 185° (S) 1,835 11.7 22.3°
Maximum altitude 12:26:33 20° 139° (SE) 1,371 9.7 22.3°
Drops below altitude 10° 12:29:43 10° 93° (E) 1,928 9.6 22.3°
Sets 12:32:34 0° 76° (ENE) 2,872 10.3 22.2°
